Time,TemperatureF,DewpointF,PressureIn,WindDirection,WindDirectionDegrees,WindSpeedMPH,WindSpeedGustMPH,Humidity,HourlyPrecipIn,Conditions,Clouds,dailyrainin,SolarRadiationWatts/m^2,SoftwareType,DateUTC
2013-09-03 00:00:00,57.0,50.0,-100.00,NNE,22,2.0,-999.0,77,-99.99,,,-99.99,0.000000,,2013-09-03 04:00:00,
2013-09-03 00:44:00,57.0,50.0,-100.00,NNE,22,2.0,-999.0,77,-99.99,,,-99.99,0.000000,,2013-09-03 04:44:00,
2013-09-03 00:53:00,57.0,50.0,-100.00,NNE,22,2.0,-999.0,77,-99.99,,,-99.99,0.000000,,2013-09-03 04:53:00,
2013-09-03 01:00:00,57.0,51.0,-100.00,NE,45,0.0,-999.0,79,-99.99,,,-99.99,0.000000,,2013-09-03 05:00:00,
2013-09-03 01:43:00,57.0,51.0,-100.00,NE,45,0.0,-999.0,79,-99.99,,,-99.99,0.000000,,2013-09-03 05:43:00,
2013-09-03 01:52:00,57.0,51.0,-100.00,NE,45,0.0,-999.0,79,-99.99,,,-99.99,0.000000,,2013-09-03 05:52:00,
2013-09-03 02:00:00,56.0,51.0,-100.00,SSW,202,1.0,-999.0,81,-99.99,,,-99.99,0.000000,,2013-09-03 06:00:00,
2013-09-03 02:43:00,56.0,51.0,-100.00,SSW,202,1.0,-999.0,81,-99.99,,,-99.99,0.000000,,2013-09-03 06:43:00,
2013-09-03 02:52:00,56.0,51.0,-100.00,SSW,202,1.0,-999.0,81,-99.99,,,-99.99,0.000000,,2013-09-03 06:52:00,
2013-09-03 03:00:00,56.0,50.0,-100.00,NNE,22,1.0,-999.0,81,-99.99,,,-99.99,0.000000,,2013-09-03 07:00:00,
2013-09-03 03:42:00,56.0,50.0,-100.00,NNE,22,1.0,-999.0,81,-99.99,,,-99.99,0.000000,,2013-09-03 07:42:00,
2013-09-03 03:53:00,56.0,50.0,-100.00,NNE,22,1.0,-999.0,81,-99.99,,,-99.99,0.000000,,2013-09-03 07:53:00,
2013-09-03 04:00:00,54.0,50.0,-100.00,North,0,1.0,-999.0,85,-99.99,,,-99.99,0.000000,,2013-09-03 08:00:00,
2013-09-03 04:42:00,54.0,50.0,-100.00,North,0,1.0,-999.0,85,-99.99,,,-99.99,0.000000,,2013-09-03 08:42:00,
2013-09-03 04:52:00,54.0,50.0,-100.00,North,0,1.0,-999.0,85,-99.99,,,-99.99,0.000000,,2013-09-03 08:52:00,
2013-09-03 05:00:00,55.0,51.0,-100.00,North,0,0.0,-999.0,88,-99.99,,,-99.99,0.000000,,2013-09-03 09:00:00,
2013-09-03 05:43:00,55.0,51.0,-100.00,North,0,0.0,-999.0,88,-99.99,,,-99.99,0.000000,,2013-09-03 09:43:00,
2013-09-03 05:53:00,55.0,51.0,-100.00,North,0,0.0,-999.0,88,-99.99,,,-99.99,0.000000,,2013-09-03 09:53:00,
2013-09-03 06:00:00,56.0,51.0,-100.00,North,0,1.0,-999.0,83,-99.99,,,-99.99,0.000000,,2013-09-03 10:00:00,
2013-09-03 06:42:00,56.0,51.0,-100.00,North,0,1.0,-999.0,83,-99.99,,,-99.99,0.000000,,2013-09-03 10:42:00,
2013-09-03 06:53:00,56.0,51.0,-100.00,North,0,1.0,-999.0,83,-99.99,,,-99.99,0.000000,,2013-09-03 10:53:00,
2013-09-03 07:00:00,57.0,51.0,-100.00,NNE,22,3.0,-999.0,80,-99.99,,,-99.99,0.000000,,2013-09-03 11:00:00,
2013-09-03 07:43:00,57.0,51.0,-100.00,NNE,22,3.0,-999.0,80,-99.99,,,-99.99,0.000000,,2013-09-03 11:43:00,
2013-09-03 07:52:00,57.0,51.0,-100.00,NNE,22,3.0,-999.0,80,-99.99,,,-99.99,0.000000,,2013-09-03 11:52:00,
2013-09-03 08:00:00,57.0,50.0,-100.00,NNE,22,3.0,-999.0,77,-99.99,,,-99.99,23.200001,,2013-09-03 12:00:00,
2013-09-03 08:42:00,57.0,50.0,-100.00,NNE,22,3.0,-999.0,77,-99.99,,,-99.99,23.200001,,2013-09-03 12:42:00,
2013-09-03 08:52:00,57.0,50.0,-100.00,NNE,22,3.0,-999.0,77,-99.99,,,-99.99,23.200001,,2013-09-03 12:52:00,
2013-09-03 09:00:00,62.0,51.0,-100.00,NNE,22,3.0,-999.0,66,-99.99,,,-99.99,204.160004,,2013-09-03 13:00:00,
2013-09-03 09:42:00,62.0,51.0,-100.00,NNE,22,3.0,-999.0,66,-99.99,,,-99.99,204.160004,,2013-09-03 13:42:00,
2013-09-03 09:52:00,62.0,51.0,-100.00,NNE,22,3.0,-999.0,66,-99.99,,,-99.99,204.160004,,2013-09-03 13:52:00,
2013-09-03 10:00:00,65.0,51.0,-100.00,NNE,22,5.0,-999.0,61,-99.99,,,-99.99,387.440002,,2013-09-03 14:00:00,
2013-09-03 10:42:00,65.0,51.0,-100.00,NNE,22,5.0,-999.0,61,-99.99,,,-99.99,387.440002,,2013-09-03 14:42:00,
2013-09-03 10:52:00,65.0,51.0,-100.00,NNE,22,5.0,-999.0,61,-99.99,,,-99.99,387.440002,,2013-09-03 14:52:00,
2013-09-03 11:00:00,68.0,52.0,-100.00,NNE,22,5.0,-999.0,58,-99.99,,,-99.99,552.159973,,2013-09-03 15:00:00,
2013-09-03 11:43:00,68.0,52.0,-100.00,NNE,22,5.0,-999.0,58,-99.99,,,-99.99,552.159973,,2013-09-03 15:43:00,
2013-09-03 11:54:00,68.0,52.0,-100.00,NNE,22,5.0,-999.0,58,-99.99,,,-99.99,552.159973,,2013-09-03 15:54:00,
2013-09-03 12:00:00,70.0,54.0,-100.00,North,0,5.0,-999.0,56,-99.99,,,-99.99,671.640015,,2013-09-03 16:00:00,
2013-09-03 12:43:00,70.0,54.0,-100.00,North,0,5.0,-999.0,56,-99.99,,,-99.99,671.640015,,2013-09-03 16:43:00,
2013-09-03 12:54:00,70.0,54.0,-100.00,North,0,5.0,-999.0,56,-99.99,,,-99.99,671.640015,,2013-09-03 16:54:00,
2013-09-03 13:00:00,70.0,56.0,-100.00,NNW,337,4.0,-999.0,59,-99.99,,,-99.99,544.039978,,2013-09-03 17:00:00,
2013-09-03 13:43:00,70.0,56.0,-100.00,NNW,337,4.0,-999.0,59,-99.99,,,-99.99,544.039978,,2013-09-03 17:43:00,
2013-09-03 13:52:00,70.0,56.0,-100.00,NNW,337,4.0,-999.0,59,-99.99,,,-99.99,544.039978,,2013-09-03 17:52:00,
2013-09-03 14:00:00,73.0,57.0,-100.00,NW,315,5.0,-999.0,57,-99.99,,,-99.99,679.760010,,2013-09-03 18:00:00,
2013-09-03 14:43:00,73.0,57.0,-100.00,NW,315,5.0,-999.0,57,-99.99,,,-99.99,679.760010,,2013-09-03 18:43:00,
2013-09-03 14:52:00,73.0,57.0,-100.00,NW,315,5.0,-999.0,57,-99.99,,,-99.99,679.760010,,2013-09-03 18:52:00,
2013-09-03 15:00:00,72.0,57.0,-100.00,NNW,337,4.0,-999.0,59,-99.99,,,-99.99,537.080017,,2013-09-03 19:00:00,
2013-09-03 15:42:00,72.0,57.0,-100.00,NNW,337,4.0,-999.0,59,-99.99,,,-99.99,537.080017,,2013-09-03 19:42:00,
2013-09-03 15:52:00,72.0,57.0,-100.00,NNW,337,4.0,-999.0,59,-99.99,,,-99.99,537.080017,,2013-09-03 19:52:00,
2013-09-03 16:00:00,72.0,57.0,-100.00,NW,315,4.0,-999.0,59,-99.99,,,-99.99,459.359985,,2013-09-03 20:00:00,
2013-09-03 16:42:00,72.0,57.0,-100.00,NW,315,4.0,-999.0,59,-99.99,,,-99.99,459.359985,,2013-09-03 20:42:00,
2013-09-03 16:53:00,72.0,57.0,-100.00,NW,315,4.0,-999.0,59,-99.99,,,-99.99,459.359985,,2013-09-03 20:53:00,
2013-09-03 17:00:00,69.0,57.0,-100.00,NW,315,4.0,-999.0,64,-99.99,,,-99.99,312.040009,,2013-09-03 21:00:00,
2013-09-03 17:44:00,69.0,57.0,-100.00,NW,315,4.0,-999.0,64,-99.99,,,-99.99,312.040009,,2013-09-03 21:44:00,
2013-09-03 17:54:00,69.0,57.0,-100.00,NW,315,4.0,-999.0,64,-99.99,,,-99.99,312.040009,,2013-09-03 21:54:00,
2013-09-03 18:00:00,74.0,57.0,-100.00,WNW,292,3.0,-999.0,55,-99.99,,,-99.99,516.200012,,2013-09-03 22:00:00,
2013-09-03 18:43:00,74.0,57.0,-100.00,WNW,292,3.0,-999.0,55,-99.99,,,-99.99,516.200012,,2013-09-03 22:43:00,
2013-09-03 18:53:00,74.0,57.0,-100.00,WNW,292,3.0,-999.0,55,-99.99,,,-99.99,516.200012,,2013-09-03 22:53:00,
2013-09-03 19:00:00,71.0,57.0,-100.00,NW,315,2.0,-999.0,61,-99.99,,,-99.99,216.919998,,2013-09-03 23:00:00,
2013-09-03 19:42:00,71.0,57.0,-100.00,NW,315,2.0,-999.0,61,-99.99,,,-99.99,216.919998,,2013-09-03 23:42:00,
2013-09-03 19:54:00,71.0,57.0,-100.00,NW,315,2.0,-999.0,61,-99.99,,,-99.99,216.919998,,2013-09-03 23:54:00,
2013-09-03 20:00:00,65.0,56.0,-100.00,WNW,292,1.0,-999.0,73,-99.99,,,-99.99,51.040001,,2013-09-04 00:00:00,
2013-09-03 20:42:00,65.0,56.0,-100.00,WNW,292,1.0,-999.0,73,-99.99,,,-99.99,51.040001,,2013-09-04 00:42:00,
2013-09-03 20:52:00,65.0,56.0,-100.00,WNW,292,1.0,-999.0,73,-99.99,,,-99.99,51.040001,,2013-09-04 00:52:00,
2013-09-03 21:00:00,61.0,55.0,-100.00,South,180,0.0,-999.0,80,-99.99,,,-99.99,2.320000,,2013-09-04 01:00:00,
2013-09-03 21:42:00,61.0,55.0,-100.00,South,180,0.0,-999.0,80,-99.99,,,-99.99,2.320000,,2013-09-04 01:42:00,
2013-09-03 21:53:00,61.0,55.0,-100.00,South,180,0.0,-999.0,80,-99.99,,,-99.99,2.320000,,2013-09-04 01:53:00,
2013-09-03 22:00:00,59.0,55.0,-100.00,South,180,0.0,-999.0,83,-99.99,,,-99.99,0.000000,,2013-09-04 02:00:00,
2013-09-03 22:43:00,59.0,55.0,-100.00,South,180,0.0,-999.0,83,-99.99,,,-99.99,0.000000,,2013-09-04 02:43:00,
2013-09-03 22:52:00,59.0,55.0,-100.00,South,180,0.0,-999.0,83,-99.99,,,-99.99,0.000000,,2013-09-04 02:52:00,
2013-09-03 23:00:00,58.0,54.0,-100.00,SSW,202,1.0,-999.0,86,-99.99,,,-99.99,0.000000,,2013-09-04 03:00:00,
2013-09-03 23:44:00,58.0,54.0,-100.00,SSW,202,1.0,-999.0,86,-99.99,,,-99.99,0.000000,,2013-09-04 03:44:00,
2013-09-03 23:54:00,58.0,54.0,-100.00,SSW,202,1.0,-999.0,86,-99.99,,,-99.99,0.000000,,2013-09-04 03:54:00,